Skip Navigation Links
Stormchaser Mountsorrel Leicester current Weather StormChaser Mountsorrel Leicester current Weather

7 Day Weather Forecast for Mountsorrel / Rothley
Today: Largely dry to start, but patchy cloud soon increasing, bringing scattered showers. These are likely to turn heavy and perhaps thundery in places, and be accompanied by gusty winds. Showers easing later in the afternoon, allowing for increased sunny spells. Maximum Temperature 24C.

Tonight: Any remaining showers soon dying out to leave most places dry and sunny this evening. Remaining dry overnight with largely clear skies. Minimum Temperature 10C.

Sunday: Largely dry on Sunday with plenty of sunshine during the morning. However, patchy cloud will develop by the afternoon, dissipating again in the evening. Feeling warm with light winds. Maximum Temperature 24C.

Outlook for Monday to Wednesday: Largely dry Monday, but rather cloudy and breezy at times. Becoming very warm Tuesday with plenty of sunshine and light winds. Very warm Wednesday with a risk of a thunderstom.
XML Weather DataFeed Supplied by NetWeather.tv
GFS Model Run: Sat 20 Jul 00:00 am
Data Obtained: Sat 20 Jul 05:05 am

DateTimeTempDew PointWind ChillWind SpeedWind DirectionAir PressureRainStorm RiskSnow Risk% CloudForecastWxIcon
Sat 20 Jul09:00 am18°c14°c17°c16 mph WSW 1004 mb--12%--70%Sunny Spells Sunny Spells
 12:00 pm20°c14°c20°c17 mph WSW 1005 mb--52%--50%52% Chance of Thunderstorm 52% Chance of Thunderstorm
 15:00 pm19°c14°c19°c16 mph WNW 1007 mb1.0 mm32%--70%Scattered Showers Scattered Showers
 18:00 pm18°c14°c18°c11 mph WNW 1010 mb0.5 mm12%--60%Scattered Showers Scattered Showers
 21:00 pm14°c11°c13°c6 mph WEST 1013 mb--7%----Clear Clear
Sun 21 Jul00:00 am13°c11°c11°c8 mph WSW 1015 mb--7%--40%Light Cloud Light Cloud
 03:00 am12°c10°c11°c6 mph WSW 1016 mb--7%--20%Light Cloud Light Cloud
 06:00 am14°c12°c13°c6 mph SW 1018 mb--7%--50%Sunny Periods Sunny Periods
 09:00 am18°c13°c18°c10 mph SW 1019 mb--10%--50%Sunny Periods Sunny Periods
 12:00 pm21°c14°c21°c12 mph WSW 1020 mb--10%--70%Sunny Spells Sunny Spells
 15:00 pm20°c15°c20°c9 mph SW 1020 mb--13%--100%Overcast Overcast
 18:00 pm20°c15°c20°c8 mph WSW 1020 mb--10%--100%Overcast Overcast
 21:00 pm16°c12°c15°c9 mph SSW 1021 mb--7%--100%Overcast Overcast
Mon 22 Jul00:00 am16°c13°c15°c12 mph SSW 1020 mb--7%--100%Overcast Overcast
 03:00 am15°c13°c14°c13 mph SSW 1020 mb--7%--100%Overcast Overcast
 06:00 am16°c14°c14°c13 mph SW 1020 mb--7%--100%Overcast Overcast
 09:00 am20°c16°c20°c13 mph SW 1021 mb--7%--90%Overcast Overcast
 12:00 pm23°c17°c23°c12 mph SW 1021 mb--10%--80%Overcast Overcast
 15:00 pm25°c18°c25°c13 mph SSW 1021 mb--10%--70%Sunny Spells Sunny Spells
 18:00 pm23°c17°c23°c10 mph SSW 1020 mb--10%--60%Sunny Spells Sunny Spells
 21:00 pm19°c15°c19°c7 mph SSW 1021 mb--7%----Clear Clear
Tue 23 Jul00:00 am17°c15°c17°c5 mph SOUTH 1021 mb--7%----Clear Clear
 03:00 am15°c13°c15°c4 mph SOUTH 1020 mb--7%----Clear Clear
 06:00 am18°c15°c18°c4 mph SSE 1019 mb--7%----Clear Clear
 09:00 am23°c17°c23°c7 mph SE 1019 mb--10%----Clear Clear
 12:00 pm27°c18°c27°c12 mph SSE 1017 mb--52%----Clear Clear
 15:00 pm29°c19°c29°c12 mph SSE 1015 mb--72%----Clear Clear
 18:00 pm27°c20°c27°c9 mph SE 1014 mb--82%----Clear Clear
 21:00 pm22°c18°c22°c9 mph SE 1014 mb0.5 mm32%--80%Scattered Showers Scattered Showers
Wed 24 Jul00:00 am21°c16°c21°c10 mph SOUTH 1014 mb0.7 mm8%--90%Scattered Showers Scattered Showers
 03:00 am19°c18°c19°c6 mph SOUTH 1012 mb1.3 mm32%--100%Scattered Showers Scattered Showers
 06:00 am20°c18°c20°c6 mph SOUTH 1013 mb1.2 mm42%--60%Scattered Showers Scattered Showers
 09:00 am23°c19°c23°c5 mph SW 1012 mb--45%--100%Overcast Overcast
 12:00 pm25°c17°c25°c6 mph WSW 1013 mb--32%--100%Overcast Overcast
 15:00 pm26°c17°c26°c12 mph SSW 1012 mb--10%--100%Overcast Overcast
 18:00 pm24°c18°c24°c9 mph SSW 1012 mb--25%--100%Overcast Overcast
 21:00 pm21°c16°c21°c8 mph SOUTH 1012 mb--10%--100%Overcast Overcast
Thu 25 Jul00:00 am19°c15°c19°c5 mph SOUTH 1011 mb--10%--100%Overcast Overcast
 03:00 am18°c13°c18°c6 mph SSE 1009 mb--7%--100%Overcast Overcast
 06:00 am19°c15°c19°c6 mph SSE 1008 mb--7%--100%Overcast Overcast
 09:00 am23°c17°c23°c14 mph SSW 1008 mb--12%--100%Overcast Overcast
 12:00 pm27°c18°c27°c17 mph SSW 1008 mb--15%--60%Sunny Spells Sunny Spells
 15:00 pm26°c15°c26°c17 mph SSW 1007 mb--10%----Clear Clear
 18:00 pm24°c18°c24°c16 mph SSW 1008 mb--32%----Clear Clear
 21:00 pm19°c14°c18°c15 mph SSW 1010 mb--7%----Clear Clear
Fri 26 Jul00:00 am17°c13°c16°c13 mph SW 1011 mb--7%--30%Light Cloud Light Cloud
 03:00 am16°c12°c15°c12 mph SW 1012 mb--7%--100%Overcast Overcast
 06:00 am16°c13°c15°c13 mph SW 1013 mb--7%--100%Overcast Overcast
 09:00 am18°c13°c18°c13 mph WSW 1015 mb--7%--100%Overcast Overcast
 12:00 pm20°c13°c20°c10 mph SW 1015 mb0.2 mm13%--100%Scattered Showers Scattered Showers
 15:00 pm21°c14°c21°c6 mph SW 1015 mb0.2 mm13%--100%Scattered Showers Scattered Showers
 18:00 pm20°c14°c20°c5 mph WEST 1015 mb0.3 mm22%--90%Scattered Showers Scattered Showers
 21:00 pm15°c13°c15°c6 mph WEST 1017 mb--30%----Clear Clear
Sat 27 Jul00:00 am13°c11°c12°c6 mph WNW 1017 mb--7%----Clear Clear
 03:00 am11°c9°c11°c5 mph WNW 1016 mb--7%----Clear Clear
 06:00 am12°c10°c12°c5 mph WEST 1017 mb--7%--50%Sunny Periods Sunny Periods
 09:00 am17°c11°c17°c8 mph WNW 1017 mb--7%--20%Sunny Periods Sunny Periods
 12:00 pm20°c10°c20°c7 mph WNW 1017 mb--10%----Clear Clear
 15:00 pm20°c11°c20°c9 mph WNW 1016 mb--10%--50%Sunny Periods Sunny Periods
 18:00 pm19°c12°c19°c7 mph WNW 1016 mb--22%--30%Sunny Periods Sunny Periods




The Mountsorrel Weather Station is located in Mountsorrel which is just South of Loughborough and just North of Leicester in Leicestershire.
It is maintained by Stormchaser Stuart Robinson whose passion is for all type of weather but especially the more severe types of weather such as Hurricanes, Typhoon and Tornadoes.